XW-2C (40906 NORAD) Tracking and Keplerian Element Data

This shows tracking and keplerian element data for the satellite.

Feedback or suggestion? Click here.




ElementValue
Catalog40906
NameXW-2C
Epoch Orbit39673
Epoch Day325.22054575
Epoch Year2022
RAAN327.5896
Inclination97.4965
Eccentricity0.001355
Argument of Perigee163.6969
Mean Anonmoly257.1129
Mean Motion15.20918132
Decay Rate5.628E-05
L11 40906U 15049H 22325.22054575 .00005628 00000+0 25696-3 0 9993
L22 40906 97.4965 327.5896 0013550 163.6969 257.1129 15.20918132396732



Live tracking and technical data element details for XW-2C (NORAD 40906). XW-2C can be tracked NOW for your location showing map with azimuth and elevation plus other details from your city location.







IsCatalogInMostPopularTable: catalog: 40906, numindb: 504
Update: records affected: 1



GetName: 40906 XW-2C

Hit Count: updated at: Mon, 28 Nov 2022 05:55:17 GMT